This is the latest recevied weather packets stored in our database for station/object N4NVD-13. If no packets are shown the sender has not sent any weather packets the latest 10 day(s).
| Time | Temp. | Humidity | Pressure | Rain* | Wind** | Luminosity | Snow |
|---|---|---|---|---|---|---|---|
| 1777659395 | 15° C | 99% | 1010.2 hPa | 0 mm | - | 79 W/m² | - |
| 1777659092 | 15° C | 99% | 1010 hPa | 0 mm | - | 116 W/m² | - |
| 1777658790 | 15° C | 99% | 1009.9 hPa | 0 mm | - | 106 W/m² | - |
| 1777658486 | 15° C | 99% | 1010 hPa | 0 mm | - | 89 W/m² | - |
| 1777658183 | 15° C | 99% | 1009.7 hPa | 0 mm | - | 171 W/m² | - |
| 1777657880 | 15° C | 99% | 1010.1 hPa | 0 mm | - | 154 W/m² | - |
| 1777657576 | 15° C | 99% | 1010.3 hPa | 0 mm | - | 135 W/m² | - |
| 1777657275 | 15.56° C | 99% | 1010.4 hPa | 0 mm | - | 111 W/m² | - |
| 1777656971 | 15° C | 99% | 1009.8 hPa | 0 mm | - | 256 W/m² | - |
| 1777656668 | 15° C | 99% | 1010 hPa | 0 mm | - | 99 W/m² | - |
| 1777656363 | 15° C | 99% | 1010.1 hPa | 0 mm | - | 106 W/m² | - |
| 1777656059 | 15° C | 99% | 1009.9 hPa | 0 mm | - | 213 W/m² | - |
| 1777655755 | 15.56° C | 99% | 1009.3 hPa | 0 mm | - | 278 W/m² | - |
| 1777655453 | 15.56° C | 99% | 1009.3 hPa | 0 mm | - | 268 W/m² | - |
| 1777655149 | 15.56° C | 99% | 1009.1 hPa | 0 mm | - | 544 W/m² | - |
| 1777654846 | 15° C | 99% | 1010 hPa | 0 mm | - | 262 W/m² | - |
| 1777654544 | 14.44° C | 99% | 1009.1 hPa | 0 mm | - | 146 W/m² | - |
| 1777654241 | 14.44° C | 99% | 1012.1 hPa | 0 mm | - | 67 W/m² | - |
| 1777653939 | 14.44° C | 99% | 1013 hPa | 0 mm | - | 49 W/m² | - |
| 1777653635 | 14.44° C | 99% | 1013.2 hPa | 0 mm | - | 34 W/m² | - |
| 1777653332 | 14.44° C | 99% | 1013 hPa | 0 mm | - | 46 W/m² | - |
| 1777653029 | 14.44° C | 99% | 1013.2 hPa | 0 mm | - | 45 W/m² | - |
| 1777652725 | 14.44° C | 99% | 1013.3 hPa | 0 mm | - | 40 W/m² | - |
| 1777652422 | 14.44° C | 99% | 1013.4 hPa | 0 mm | - | 34 W/m² | - |
| 1777652119 | 14.44° C | 99% | 1013.2 hPa | 0 mm | - | 29 W/m² | - |
* Rain latest hour (hover to see other rain measurements)
** Current wind speed in m/s (hover to see current wind gust speed)